Location: Atlantic Beach
(40.5890°N, 73.7290°W)
Time: 06:09:32
(UTC+00:00)

N. Korean satellite - Pass Details

Date: 31 January 2021
Orbit: 451 x 502 km, 97.2° (Epoch: 06 March)

Event Time Altitude Azimuth Distance (km) Brightness Sun altitude
Rises 11:28:36 0° 349° (N) 2,484 9.9 -7.4°
Reaches altitude 10° 11:31:41 10° 318° (NW) 1,596 8.7 -6.9°
Maximum altitude 11:33:05 12° 294° (WNW) 1,463 8.3 -6.6°
Drops below altitude 10° 11:34:29 10° 269° (W) 1,587 8.6 -6.3°
Sets 11:37:31 0° 238° (WSW) 2,451 9.7 -5.8°
